Tracking 22455 objects as of 8-Mar-2021
HD Live streaming from Space Station
objects crossing your sky now

THORAD AGENA D DEB

Track THORAD AGENA D DEB now!
10-day predictions


NORAD ID: 4451
Int'l Code: 1969-082EW
Perigee: 719.2 km
Apogee: 774.6 km
Inclination: 70.0 °
Period: 99.6 minutes
Semi major axis: 7117 km
RCS: 0.0152 m2 (small)
Launch date: September 30, 1969
Source: United States (US)
Launch site: AIR FORCE WESTERN TEST RANGE (AFWTR)

Note: This is SATELLITE DEBRIS
aabbcc
Your satellite tracking list
Your tracking list is empty




NASA's NSSDC Master Catalog

Two Line Element Set (TLE):
1  4451U 69082EW  21067.14140937  .00000313  00000-0  10465-3 0  9990
2  4451  70.0364 224.1515 0038920 323.7420  36.1074 14.45701965676854
Source of the keplerian elements: AFSPC